VNA1406 VVDL-VVTS

Flight info

Callsign VNA1406
Flight time 0h 28m
Altitude 10000
Route VVDL VVTS
Aircraft A321/M-V/N

Departure

Time 2026-05-08 04:15
Airport Lien Khuong Airport (VVDL)

Arrival

Time 2026-05-08 04:43
Airport Tan Son Nhat International Airport (VVTS)
Time Latitude Longitude Altitude Speed Heading
2026-05-08 04:08 11.75073 108.38433 3170 ft 0 kts 269°
2026-05-08 04:14 11.75073 108.38432 3170 ft 0 kts 269°
2026-05-08 04:14 11.75069 108.38178 3171 ft 80 kts 269°
2026-05-08 04:14 11.75055 108.37331 3171 ft 154 kts 269°
2026-05-08 04:15 11.75046 108.36146 3488 ft 180 kts 270°
2026-05-08 04:15 11.75024 108.34846 4334 ft 178 kts 268°
2026-05-08 04:15 11.74817 108.33588 5147 ft 179 kts 266°
2026-05-08 04:15 11.74911 108.32364 5768 ft 165 kts 274°
2026-05-08 04:16 11.74894 108.31159 6075 ft 175 kts 272°
2026-05-08 04:16 11.74710 108.29882 6387 ft 193 kts 249°
2026-05-08 04:16 11.73785 108.28873 6670 ft 198 kts 218°
2026-05-08 04:16 11.72673 108.28107 7400 ft 187 kts 219°
2026-05-08 04:17 11.71588 108.27381 7890 ft 191 kts 213°
2026-05-08 04:17 11.70439 108.26658 8053 ft 200 kts 220°
2026-05-08 04:17 11.69268 108.25744 8024 ft 228 kts 224°
2026-05-08 04:17 11.68108 108.24532 7907 ft 240 kts 234°
2026-05-08 04:18 11.67088 108.23082 7954 ft 268 kts 238°
2026-05-08 04:18 11.65976 108.21444 7973 ft 297 kts 237°
2026-05-08 04:18 11.64702 108.19667 7973 ft 314 kts 235°
2026-05-08 04:18 11.63388 108.17904 8194 ft 320 kts 234°
2026-05-08 04:19 11.62005 108.16081 8557 ft 321 kts 234°
2026-05-08 04:19 11.60633 108.14260 8935 ft 323 kts 234°
2026-05-08 04:19 11.59284 108.12425 9314 ft 324 kts 236°
2026-05-08 04:19 11.57980 108.10548 9693 ft 326 kts 237°
2026-05-08 04:20 11.56679 108.08632 9980 ft 328 kts 237°
2026-05-08 04:20 11.55381 108.06724 10017 ft 328 kts 237°
2026-05-08 04:20 11.54067 108.04819 10014 ft 328 kts 237°
2026-05-08 04:20 11.52726 108.02894 10013 ft 328 kts 236°
2026-05-08 04:21 11.51407 108.01010 10008 ft 328 kts 236°
2026-05-08 04:21 11.50093 107.99134 10005 ft 328 kts 237°
2026-05-08 04:21 11.48756 107.97217 10003 ft 328 kts 237°
2026-05-08 04:21 11.47433 107.95320 9999 ft 328 kts 237°
2026-05-08 04:22 11.46124 107.93444 10000 ft 328 kts 237°
2026-05-08 04:22 11.44800 107.91547 10000 ft 328 kts 237°
2026-05-08 04:22 11.43485 107.89659 10000 ft 328 kts 237°
2026-05-08 04:22 11.42138 107.87730 10002 ft 328 kts 237°
2026-05-08 04:23 11.40839 107.85867 10005 ft 328 kts 237°
2026-05-08 04:23 11.39521 107.83974 10000 ft 328 kts 237°
2026-05-08 04:23 11.38180 107.82053 9993 ft 328 kts 237°
2026-05-08 04:23 11.36868 107.80173 9983 ft 328 kts 236°
2026-05-08 04:24 11.35540 107.78276 9873 ft 327 kts 236°
2026-05-08 04:24 11.34219 107.76389 9644 ft 327 kts 236°
2026-05-08 04:24 11.32910 107.74513 9300 ft 325 kts 237°
2026-05-08 04:24 11.31606 107.72639 8926 ft 324 kts 237°
2026-05-08 04:25 11.30307 107.70783 8547 ft 318 kts 236°
2026-05-08 04:25 11.29040 107.68973 8173 ft 311 kts 237°
2026-05-08 04:25 11.27780 107.67172 7794 ft 304 kts 237°
2026-05-08 04:25 11.26576 107.65449 7423 ft 298 kts 237°
2026-05-08 04:26 11.25383 107.63739 7048 ft 292 kts 237°
2026-05-08 04:26 11.24210 107.62060 6674 ft 288 kts 237°
2026-05-08 04:26 11.23057 107.60415 6295 ft 283 kts 237°
2026-05-08 04:26 11.21926 107.58799 5919 ft 278 kts 237°
2026-05-08 04:27 11.20812 107.57208 5551 ft 279 kts 237°
2026-05-08 04:27 11.19676 107.55583 5176 ft 281 kts 237°
2026-05-08 04:27 11.18552 107.53978 4975 ft 272 kts 236°
2026-05-08 04:27 11.17473 107.52438 4870 ft 265 kts 236°
2026-05-08 04:28 11.16387 107.50889 4541 ft 266 kts 236°
2026-05-08 04:28 11.15316 107.49360 4171 ft 266 kts 236°
2026-05-08 04:28 11.14236 107.47808 3984 ft 265 kts 236°
2026-05-08 04:28 11.13174 107.46288 3975 ft 266 kts 235°
2026-05-08 04:29 11.12084 107.44738 3982 ft 266 kts 235°
2026-05-08 04:29 11.11024 107.43225 4001 ft 266 kts 235°
2026-05-08 04:29 11.10303 107.42199 4005 ft 266 kts 235°
2026-05-08 04:29 11.08871 107.40158 4013 ft 266 kts 235°
2026-05-08 04:30 11.07817 107.38646 4010 ft 266 kts 235°
2026-05-08 04:30 11.07097 107.37617 4003 ft 266 kts 235°
2026-05-08 04:30 11.06013 107.36069 4012 ft 266 kts 235°
2026-05-08 04:30 11.04931 107.34533 4006 ft 266 kts 235°
2026-05-08 04:31 11.03849 107.32999 4007 ft 266 kts 235°
2026-05-08 04:31 11.02787 107.31486 4008 ft 266 kts 235°
2026-05-08 04:31 11.01692 107.29915 4012 ft 266 kts 235°
2026-05-08 04:31 11.00624 107.28394 4021 ft 266 kts 235°
2026-05-08 04:32 10.99552 107.26868 4020 ft 266 kts 235°
2026-05-08 04:32 10.98489 107.25354 4015 ft 266 kts 235°
2026-05-08 04:32 10.97414 107.23823 4025 ft 266 kts 235°
2026-05-08 04:32 10.96320 107.22267 3877 ft 266 kts 235°
2026-05-08 04:33 10.95257 107.20751 3630 ft 265 kts 235°
2026-05-08 04:33 10.94196 107.19233 3345 ft 262 kts 234°
2026-05-08 04:33 10.93184 107.17703 3083 ft 261 kts 243°
2026-05-08 04:33 10.92813 107.15917 2927 ft 259 kts 269°
2026-05-08 04:34 10.92769 107.14047 2988 ft 262 kts 267°
2026-05-08 04:34 10.92549 107.12237 3008 ft 261 kts 258°
2026-05-08 04:34 10.92101 107.10447 3020 ft 261 kts 254°
2026-05-08 04:34 10.91615 107.08661 3022 ft 261 kts 255°
2026-05-08 04:35 10.91187 107.06876 3021 ft 261 kts 257°
2026-05-08 04:35 10.90806 107.05072 3011 ft 261 kts 258°
2026-05-08 04:35 10.90426 107.03262 3006 ft 262 kts 257°
2026-05-08 04:35 10.90024 107.01463 2981 ft 250 kts 257°
2026-05-08 04:36 10.89634 106.99799 2964 ft 233 kts 256°
2026-05-08 04:36 10.89270 106.98215 2987 ft 229 kts 257°
2026-05-08 04:36 10.88918 106.96621 2860 ft 230 kts 257°
2026-05-08 04:36 10.88571 106.95053 2660 ft 223 kts 257°
2026-05-08 04:37 10.88228 106.93538 2458 ft 215 kts 257°
2026-05-08 04:37 10.87898 106.92083 2259 ft 208 kts 257°
2026-05-08 04:37 10.87576 106.90658 2061 ft 206 kts 257°
2026-05-08 04:37 10.87264 106.89267 1943 ft 195 kts 257°
2026-05-08 04:38 10.86971 106.87963 1948 ft 186 kts 257°
2026-05-08 04:38 10.86753 106.86670 1980 ft 187 kts 270°
2026-05-08 04:38 10.86932 106.85360 1989 ft 186 kts 280°
2026-05-08 04:38 10.87126 106.84054 1986 ft 185 kts 276°
2026-05-08 04:39 10.87213 106.82802 2032 ft 171 kts 272°
2026-05-08 04:39 10.87266 106.81616 2024 ft 166 kts 272°
2026-05-08 04:39 10.87328 106.80449 2016 ft 166 kts 273°
2026-05-08 04:39 10.87393 106.79275 2008 ft 166 kts 273°
2026-05-08 04:40 10.87249 106.78121 1982 ft 167 kts 246°
2026-05-08 04:40 10.86654 106.77118 2009 ft 166 kts 240°
2026-05-08 04:40 10.86144 106.76064 2007 ft 166 kts 246°
2026-05-08 04:40 10.85724 106.74968 2005 ft 166 kts 249°
2026-05-08 04:41 10.85333 106.73887 1995 ft 158 kts 250°
2026-05-08 04:41 10.84978 106.72844 1816 ft 157 kts 251°
2026-05-08 04:41 10.84571 106.71810 1474 ft 157 kts 247°
2026-05-08 04:41 10.84156 106.70786 1052 ft 159 kts 247°
2026-05-08 04:42 10.83787 106.69748 691 ft 155 kts 250°
2026-05-08 04:42 10.83409 106.68744 393 ft 148 kts 248°
2026-05-08 04:42 10.83052 106.67790 162 ft 135 kts 249°
2026-05-08 04:42 10.82724 106.66932 73 ft 142 kts 248°
2026-05-08 04:43 10.82352 106.65956 57 ft 143 kts 249°
2026-05-08 04:43 10.82064 106.65185 48 ft 77 kts 248°
2026-05-08 04:43 10.81960 106.64915 48 ft 19 kts 248°
2026-05-08 04:43 10.81911 106.64792 47 ft 19 kts 249°
2026-05-08 04:44 10.81864 106.64668 48 ft 19 kts 249°
2026-05-08 04:44 10.81832 106.64585 47 ft 12 kts 249°
2026-05-08 04:44 10.81800 106.64502 47 ft 13 kts 249°
2026-05-08 04:44 10.81767 106.64414 47 ft 13 kts 248°
2026-05-08 04:45 10.81724 106.64368 47 ft 7 kts 199°
2026-05-08 04:45 10.81670 106.64355 47 ft 9 kts 188°
2026-05-08 04:45 10.81608 106.64345 47 ft 10 kts 188°
2026-05-08 04:45 10.81536 106.64337 47 ft 11 kts 179°
2026-05-08 04:46 10.81459 106.64354 47 ft 12 kts 161°
2026-05-08 04:46 10.81376 106.64383 47 ft 13 kts 160°
2026-05-08 04:46 10.81293 106.64429 47 ft 14 kts 137°
2026-05-08 04:46 10.81231 106.64510 47 ft 15 kts 125°
2026-05-08 04:47 10.81174 106.64577 47 ft 12 kts 150°
2026-05-08 04:47 10.81130 106.64588 47 ft 6 kts 212°
2026-05-08 04:47 10.81106 106.64553 47 ft 7 kts 245°
2026-05-08 04:47 10.81085 106.64518 47 ft 5 kts 218°
2026-05-08 04:48 10.81076 106.64515 47 ft 0 kts 185°
2026-05-08 04:48 10.81069 106.64515 47 ft 2 kts 185°
2026-05-08 04:48 10.81058 106.64515 47 ft 0 kts 168°